Powrót do katalogu

COSMOS 2212

AktywnyMilitariaPO
NORAD 22183·PAYLOAD·🇷🇺 Russia

Wystrzelony Oct 20, 1992 z Plesetsk Cosmodrome

Loading…

Następne Przeloty (najbliższe 24 godziny)

TLE

ŚwieżeSource: Space-Track

Epoka: Sep 14, 2026, 01:41 UTC

1 22183U 92068B   26257.07029724  .00000010  00000-0 -42746-5 0  9994
2 22183  82.5838 271.9923 0002077   0.1013   0.0079 12.63152098562800

Śledź COSMOS 2212 w czasie rzeczywistym z AllMySat

Download on the App Store